Regional Weather Roundup
Issued by NWS Cleveland, OH

Home | Current Version | Previous Version | Graphics & Text | Print | Product List | Glossary On
Versions: 1 2 3 4 5 6 7 8 9 10 11 12 13 14 15 16 17 18 19 20 21 22 23 24 25 26 27 28 29 30 31 32 33 34 35 36 37 38 39 40 41 42 43 44 45 46 47 48 49 50
000
ASUS41 KCLE 041702
RWRCLE
OHIO REGIONAL WEATHER ROUNDUP
NATIONAL WEATHER SERVICE CLEVELAND, OH
1200 PM EST WED MAR 04 2015

NOTE: "FAIR" INDICATES FEW OR NO CLOUDS BELOW 12,000 FEET WITH NO
SIGNIFICANT WEATHER AND/OR OBSTRUCTIONS TO VISIBILITY.

OHZ001>008-015>018-024>027-034-035-043-044-041800-
   NORTHWEST OHIO

CITY           SKY/WX    TMP DP  RH WIND       PRES   REMARKS
DEFIANCE       CLOUDY    34  23  64 W8        30.00R WCI  27
FINDLAY        CLOUDY    33  26  75 W9        29.97R WCI  25
TOLEDO EXPRESS CLOUDY    33  22  63 W9        29.96S WCI  25
TOLEDO EXEC    CLOUDY    35  22  58 W13       29.98R WCI  26
LIMA           CLOUDY    33  25  72 NW9       29.98R WCI  25
$$

OHZ009>014-019>023-028>033-038-089-041800-
   NORTHEAST OHIO

CITY           SKY/WX    TMP DP  RH WIND       PRES   REMARKS
CLE-HOPKINS    CLOUDY    33  24  69 CALM      29.96F
CLE-LAKEFRONT  CLOUDY    32  25  75 W3        29.94F
CUY CO. ARPT   CLOUDY    34  25  69 NW8       29.95S WCI  27
LORAIN-ELYRIA  CLOUDY    32  23  69 NW6       29.94F WCI  26
ASHTABULA      CLOUDY    32  23  69 W10       29.94F WCI  24
AKRON-CANTON   CLOUDY    34  27  75 NW6       29.91F WCI  29
WOOSTER        CLOUDY    33  26  75 N6        29.92F WCI  28
MANSFIELD      CLOUDY    33  25  72 NW7       29.93F WCI  27
YOUNGSTOWN     CLOUDY    33  27  78 NW8       29.92R WCI  26
$$

OHZ042-051>053-060>062-070>072-077>081-041800-
  SOUTHWEST OHIO

CITY           SKY/WX    TMP DP  RH WIND       PRES   REMARKS
CINC-COVINGTON CLOUDY    36  31  82 N7        30.00R
CINC-LUNKEN    CLOUDY    36  31  82 NW6       30.03R
HAMILTON       CLOUDY    36  31  82 N3        30.02R
DAYTON         CLOUDY    34  26  72 NW12      30.01R WCI  25
WRIGHT-PAT AFB PTSUNNY   35  30  80 NW9       29.99R FOG     WCI  28
DAYTON GENERAL CLOUDY    35  30  82 NW6       29.98R
WILMINGTON     CLOUDY    34  30  85 N5        29.98R WCI  30
$$

OHZ036-037-039>041-045>050-054>059-063>069-073>076-082>088-041800-
  CENTRAL AND SOUTHEAST OHIO

CITY           SKY/WX    TMP DP  RH WIND       PRES   REMARKS
COLUMBUS       CLOUDY    35  30  82 NW6       29.96S HAZE
OSU AIRPORT    CLOUDY    35  30  82 NW5       29.96S HAZE
BOLTON FIELD   PTSUNNY   34  32  93 W6        29.97R WCI  29
RICKENBACK AFB NOT AVBL
NEWARK         CLOUDY    36  30  79 NW5       29.94F
MARION         CLOUDY    33  25  72 NW7       29.95F WCI  27
LANCASTER      CLOUDY    36  34  92 CALM      29.96R FOG
ZANESVILLE     LGT RAIN  34  31  88 NW3       29.94F FOG
NEW PHILLY     CLOUDY    36  31  82 NW5       29.93F HAZE
$$


USA.gov is the U.S. government's official web portal to all federal, state and local government web resources and services.